Simultaneous Nadir Overpasses (SNOs) Predictions

Prediction of SNOs between GOES-17 and METOP-C Satellite Orbit:

Table of predicted SNOs for the next 14.0 days since TLE Epoch: 2/1/2025
Index Date Time (GOES-17) GOES-17 Lat,Lon METOP-C Lat,Lon Distance(km) Time Diff (sec)
1 02/01/2025 04:27:36 -0.00,-104.66 0.12,-104.14 58.44 1
2 02/02/2025 16:45:09 -0.00,-104.67 0.90,-108.70 459.80 80
3 02/03/2025 16:27:09 0.00,-104.68 -0.21,-103.71 110.34 80
4 02/05/2025 04:46:09 0.01,-104.69 -0.81,-108.31 412.87 80
5 02/06/2025 04:22:50 0.00,-104.69 0.31,-103.31 156.50 80
6 02/07/2025 16:41:41 -0.01,-104.69 0.69,-107.88 362.69 80
7 02/08/2025 16:23:42 -0.01,-104.70 -0.44,-102.89 207.30 80
8 02/10/2025 04:42:42 0.01,-104.71 -0.57,-107.48 315.41 80
9 02/11/2025 04:19:22 0.01,-104.71 0.50,-102.48 254.34 80
10 02/12/2025 16:38:12 -0.01,-104.72 0.53,-107.03 264.58 80
11 02/13/2025 16:20:12 -0.01,-104.73 -0.60,-102.04 306.13 80
